Weather in Gomel

Belarus     55°17′52″N   28°46′32″E
temp.,
°C
wind,
m/s
gust,
m/s
humid.,
%
clouds,
%
prec.,
mm/h
press.,
hPa
HPBL,
m
14 may, fri
fri1400:00+9se4992100 0.1 1009434
03:00+9se5129253 0.4 1009513
06:00+10se51297100 1.6 1007671
09:00+11se61393100 1.9 1007725
12:00+13se7128581 0.2 1008995
15:00+15sse61180100 1.3 10071217
18:00+16sse377929 0.8 1006817
21:00+13ese33935 1.3 100651
15 may, sat
sat1500:00+11ese229443 0.0 100612
03:00+10ese1194100 0.0 100510
06:00+11ese1194100 0.0 100511
09:00+15s128197 0.0 1005311
12:00+19ssw2269100 2.8 1005547
15:00+19ssw237080 6.9 1004621
18:00+18wsw3577100 1.7 1004622
21:00+14wnw22948 3.5 100536
16 may, sun
sun1600:00+12w229582 0.0 100640
03:00+10w259688 0.0 100788
06:00+10w259587 0.0 1009110
09:00+15wsw2382100 0.0 1010367
12:00+19ssw2361100 0.0 10101107
15:00+18s457195 0.9 1010833
18:00+20s3557100 0.2 10091472
21:00+14s34823 0.2 101060
17 may, mon
mon1700:00+11se359194 0.0 101074
03:00+11se399516 0.0 1010177
06:00+11ese4109268 0.0 1009258
09:00+16se5875100 0.0 1009466
12:00+18se5769100 0.0 1008794
15:00+18se5875100 0.5 1006566
18:00+13w3697100 7.1 1005259
21:00+12nw2499100 14.8 1004152
18 may, tue
tue1800:00+12w4996100 0.5 1005508
03:00+9w399875 0.5 1007294
06:00+8wsw23962 0.0 100975
09:00+13sw22763 0.0 1009421
12:00+18ssw345915 0.0 10091406
15:00+20ssw2353100 0.1 10081706
18:00+17ssw247546 1.1 1009334
21:00+13sse22895 2.3 100924